TimeEDT,TemperatureF,Dew PointF,Humidity,Sea Level PressureIn,VisibilityMPH,Wind Direction,Wind SpeedMPH,Gust SpeedMPH,PrecipitationIn,Events,Conditions,WindDirDegrees,DateUTC
1:53 AM,68.0,57.0,68,29.87,10.0,South,6.9,-,N/A,,Overcast,170,2014-04-28 05:53:00
4:53 AM,63.0,57.9,84,29.79,10.0,ESE,3.5,-,N/A,,Mostly Cloudy,120,2014-04-28 08:53:00
6:53 AM,64.0,57.0,78,29.75,10.0,SSE,4.6,-,N/A,,Mostly Cloudy,150,2014-04-28 10:53:00
7:53 AM,66.0,57.9,75,29.73,10.0,South,5.8,-,N/A,,Scattered Clouds,180,2014-04-28 11:53:00
8:16 AM,66.9,57.9,73,29.77,10.0,South,9.2,-,N/A,Thunderstorm,Mostly Cloudy,180,2014-04-28 12:16:00
8:36 AM,66.9,59.0,76,29.76,10.0,Variable,5.8,-,0.00,,Scattered Clouds,0,2014-04-28 12:36:00
8:53 AM,69.1,59.0,70,29.72,10.0,South,11.5,18.4,0.00,,Partly Cloudy,180,2014-04-28 12:53:00
9:53 AM,73.0,59.0,61,29.74,10.0,South,19.6,28.8,N/A,,Clear,190,2014-04-28 13:53:00
10:53 AM,75.0,59.0,57,29.78,10.0,SSW,18.4,33.4,N/A,,Overcast,210,2014-04-28 14:53:00
11:24 AM,71.1,61.0,70,29.84,1.2,West,26.5,32.2,0.13,Rain,Rain,260,2014-04-28 15:24:00
11:32 AM,69.1,62.1,78,29.82,0.8,SSW,11.5,32.2,0.17,Rain,Light Rain,210,2014-04-28 15:32:00
11:35 AM,69.1,62.1,78,29.82,3.0,SSW,11.5,-,0.17,Rain,Light Rain,200,2014-04-28 15:35:00
11:53 AM,69.1,63.0,81,29.80,10.0,SW,5.8,-,0.17,,Scattered Clouds,230,2014-04-28 15:53:00
12:53 PM,72.0,63.0,73,29.81,10.0,Variable,5.8,-,N/A,,Mostly Cloudy,0,2014-04-28 16:53:00
1:53 PM,70.0,55.9,61,29.82,10.0,WNW,15.0,27.6,N/A,,Overcast,300,2014-04-28 17:53:00
2:15 PM,64.9,59.0,81,29.85,3.0,NW,8.1,23.0,0.08,Rain,Rain,310,2014-04-28 18:15:00
2:53 PM,63.0,59.0,87,29.86,4.0,NW,4.6,-,0.16,Rain,Rain,320,2014-04-28 18:53:00
3:53 PM,63.0,59.0,87,29.77,10.0,ESE,5.8,-,0.05,Rain,Light Rain,120,2014-04-28 19:53:00
4:53 PM,64.9,60.1,84,29.77,10.0,SE,6.9,-,0.00,,Clear,140,2014-04-28 20:53:00
6:53 PM,68.0,59.0,73,29.73,10.0,ESE,5.8,-,N/A,,Clear,120,2014-04-28 22:53:00
7:53 PM,66.9,59.0,76,29.71,10.0,ESE,6.9,-,N/A,,Clear,120,2014-04-28 23:53:00
8:53 PM,66.9,59.0,76,29.68,10.0,ESE,5.8,-,N/A,,Clear,120,2014-04-29 00:53:00
9:53 PM,68.0,60.1,76,29.69,10.0,SSE,5.8,-,0.02,Rain,Light Rain,150,2014-04-29 01:53:00
10:53 PM,66.9,61.0,81,29.70,10.0,SSW,3.5,-,0.02,Rain,Light Rain,200,2014-04-29 02:53:00
11:24 PM,66.0,62.1,87,29.73,6.0,SSW,3.5,-,0.06,Rain-Thunderstorm,Light Rain,210,2014-04-29 03:24:00
11:53 PM,66.0,62.1,87,29.72,2.5,SSW,5.8,-,0.17,Rain-Thunderstorm,Heavy Rain,210,2014-04-29 03:53:00